UNO11 EHAM-ENKR

Flight info

Callsign UNO11
Flight time N/A
Altitude 31000
Route ANDIK N873 KEKIX Z708 AGISU DCT KUGAL DCT GETPA DCT SIVNU
Aircraft A400/H-SDE2E3FGHIJ4J5M1RWXY/LB1D1

Departure

Time 2026-04-18 11:30
Airport Amsterdam Airport Schiphol (EHAM)

Arrival

Time N/A
Airport Kirkenes Airport, Høybuktmoen (ENKR)
Time Latitude Longitude Altitude Speed Heading
2026-04-18 09:31 52.30944 4.75243 5 ft 0 kts 150°
2026-04-18 10:50 52.30957 4.75231 6 ft 3 kts 149°
2026-04-18 10:50 52.30973 4.75215 7 ft 3 kts 149°
2026-04-18 10:50 52.30981 4.75208 8 ft 0 kts 149°
2026-04-18 10:51 52.30989 4.75201 9 ft 3 kts 149°
2026-04-18 10:51 52.31000 4.75190 10 ft 0 kts 149°
2026-04-18 10:58 52.30999 4.75191 10 ft 1 kts 149°
2026-04-18 10:59 52.30998 4.75204 9 ft 1 kts 96°
2026-04-18 10:59 52.31002 4.75211 10 ft 1 kts 58°
2026-04-18 10:59 52.31013 4.75244 7 ft 5 kts 60°
2026-04-18 10:59 52.31036 4.75309 6 ft 8 kts 60°
2026-04-18 11:00 52.31067 4.75399 7 ft 10 kts 60°
2026-04-18 11:00 52.31107 4.75484 7 ft 10 kts 38°
2026-04-18 11:00 52.31172 4.75493 8 ft 10 kts 356°
2026-04-18 11:00 52.31246 4.75486 7 ft 11 kts 356°
2026-04-18 11:01 52.31333 4.75476 5 ft 13 kts 356°
2026-04-18 11:01 52.31356 4.75474 5 ft 0 kts 355°
2026-04-18 11:01 52.31360 4.75473 5 ft 3 kts 355°
2026-04-18 11:02 52.31422 4.75494 5 ft 4 kts 53°
2026-04-18 11:02 52.31425 4.75523 4 ft 0 kts 88°
2026-04-18 11:06 52.31425 4.75524 4 ft 1 kts 88°
2026-04-18 11:06 52.31427 4.75553 4 ft 4 kts 84°
2026-04-18 11:06 52.31430 4.75614 5 ft 7 kts 84°
2026-04-18 11:06 52.31438 4.75697 5 ft 8 kts 81°
2026-04-18 11:07 52.31443 4.75791 6 ft 8 kts 86°
2026-04-18 11:07 52.31446 4.75892 7 ft 9 kts 87°
2026-04-18 11:07 52.31450 4.76004 8 ft 10 kts 87°
2026-04-18 11:07 52.31454 4.76126 9 ft 11 kts 86°
2026-04-18 11:08 52.31459 4.76263 9 ft 13 kts 86°
2026-04-18 11:08 52.31464 4.76413 9 ft 14 kts 87°
2026-04-18 11:08 52.31469 4.76576 7 ft 16 kts 87°
2026-04-18 11:08 52.31475 4.76766 4 ft 18 kts 88°
2026-04-18 11:09 52.31482 4.76961 4 ft 17 kts 86°
2026-04-18 11:09 52.31475 4.77138 4 ft 15 kts 110°
2026-04-18 11:09 52.31425 4.77264 5 ft 13 kts 128°
2026-04-18 11:09 52.31371 4.77368 4 ft 12 kts 130°
2026-04-18 11:10 52.31314 4.77462 5 ft 10 kts 142°
2026-04-18 11:10 52.31254 4.77503 7 ft 9 kts 172°
2026-04-18 11:10 52.31192 4.77498 7 ft 9 kts 183°
2026-04-18 11:10 52.31127 4.77492 6 ft 10 kts 183°
2026-04-18 11:11 52.31058 4.77485 6 ft 9 kts 184°
2026-04-18 11:11 52.31034 4.77483 6 ft 2 kts 184°
2026-04-18 11:11 52.31014 4.77481 7 ft 3 kts 184°
2026-04-18 11:11 52.30990 4.77478 7 ft 4 kts 182°
2026-04-18 11:12 52.30961 4.77479 8 ft 5 kts 180°
2026-04-18 11:12 52.30925 4.77477 8 ft 6 kts 183°
2026-04-18 11:12 52.30877 4.77472 8 ft 8 kts 183°
2026-04-18 11:12 52.30812 4.77466 6 ft 11 kts 183°
2026-04-18 11:13 52.30742 4.77459 6 ft 8 kts 184°
2026-04-18 11:13 52.30697 4.77455 6 ft 6 kts 180°
2026-04-18 11:13 52.30654 4.77479 7 ft 7 kts 154°
2026-04-18 11:13 52.30605 4.77517 8 ft 9 kts 154°
2026-04-18 11:14 52.30544 4.77565 6 ft 11 kts 154°
2026-04-18 11:14 52.30476 4.77619 8 ft 10 kts 153°
2026-04-18 11:14 52.30413 4.77634 8 ft 10 kts 211°
2026-04-18 11:14 52.30376 4.77536 6 ft 4 kts 239°
2026-04-18 11:15 52.30376 4.77535 6 ft 0 kts 239°
2026-04-18 11:17 52.30370 4.77520 7 ft 3 kts 239°
2026-04-18 11:17 52.30355 4.77478 6 ft 5 kts 238°
2026-04-18 11:17 52.30311 4.77366 5 ft 20 kts 238°
2026-04-18 11:17 52.30193 4.77053 4 ft 38 kts 238°
2026-04-18 11:18 52.30030 4.76633 6 ft 65 kts 238°
2026-04-18 11:18 52.29884 4.76250 5 ft 36 kts 238°
2026-04-18 11:18 52.29773 4.75958 4 ft 17 kts 238°
2026-04-18 11:18 52.29792 4.75826 6 ft 16 kts 348°
2026-04-18 11:19 52.29861 4.75881 4 ft 15 kts 27°
2026-04-18 11:19 52.29906 4.75909 4 ft 0 kts 15°
2026-04-18 11:21 52.29907 4.75909 4 ft 2 kts 14°
2026-04-18 11:21 52.29947 4.75924 5 ft 6 kts 17°
2026-04-18 11:22 52.29982 4.75968 6 ft 7 kts 52°
2026-04-18 11:22 52.30012 4.76042 5 ft 9 kts 57°
2026-04-18 11:22 52.30053 4.76142 4 ft 12 kts 56°
2026-04-18 11:22 52.30092 4.76242 7 ft 9 kts 57°
2026-04-18 11:23 52.30125 4.76329 7 ft 9 kts 57°
2026-04-18 11:23 52.30161 4.76423 6 ft 11 kts 58°
2026-04-18 11:23 52.30202 4.76530 8 ft 11 kts 59°
2026-04-18 11:23 52.30244 4.76640 7 ft 12 kts 58°
2026-04-18 11:24 52.30292 4.76771 4 ft 15 kts 59°
2026-04-18 11:24 52.30345 4.76914 5 ft 15 kts 58°
2026-04-18 11:24 52.30402 4.77063 3 ft 16 kts 58°
2026-04-18 11:24 52.30454 4.77201 4 ft 13 kts 57°
2026-04-18 11:25 52.30479 4.77262 5 ft 0 kts 57°
2026-04-18 11:26 52.30486 4.77281 4 ft 6 kts 57°
2026-04-18 11:26 52.30513 4.77347 4 ft 8 kts 57°
2026-04-18 11:27 52.30545 4.77428 5 ft 8 kts 56°
2026-04-18 11:27 52.30563 4.77507 6 ft 7 kts 99°
2026-04-18 11:27 52.30529 4.77574 6 ft 7 kts 146°
2026-04-18 11:27 52.30484 4.77610 7 ft 7 kts 159°
2026-04-18 11:28 52.30438 4.77627 8 ft 7 kts 177°
2026-04-18 11:28 52.30395 4.77587 8 ft 9 kts 236°
2026-04-18 11:28 52.30363 4.77499 6 ft 7 kts 238°
2026-04-18 11:28 52.30359 4.77488 6 ft 0 kts 238°
2026-04-18 11:29 52.30353 4.77473 6 ft 8 kts 238°
2026-04-18 11:29 52.30288 4.77303 3 ft 33 kts 237°
2026-04-18 11:29 52.30001 4.76568 8 ft 121 kts 237°
2026-04-18 11:29 52.29476 4.75051 93 ft 177 kts 240°
2026-04-18 11:30 52.28829 4.73234 589 ft 193 kts 239°
2026-04-18 11:30 52.28103 4.71263 1063 ft 215 kts 237°
2026-04-18 11:30 52.27163 4.69152 1415 ft 243 kts 225°
2026-04-18 11:30 52.25645 4.67733 1782 ft 264 kts 192°
2026-04-18 11:31 52.23844 4.67992 2150 ft 259 kts 156°
2026-04-18 11:31 52.22555 4.69832 2513 ft 238 kts 121°
2026-04-18 11:31 52.21853 4.72233 2909 ft 233 kts 112°
2026-04-18 11:31 52.21267 4.74697 3283 ft 233 kts 111°
2026-04-18 11:32 52.20637 4.77097 3658 ft 234 kts 116°
2026-04-18 11:32 52.19886 4.79446 4039 ft 235 kts 119°
2026-04-18 11:32 52.19095 4.81781 4411 ft 236 kts 118°
2026-04-18 11:32 52.18481 4.84260 4783 ft 237 kts 102°
2026-04-18 11:33 52.18456 4.86942 5156 ft 238 kts 77°
2026-04-18 11:33 52.19126 4.89399 5539 ft 240 kts 52°
2026-04-18 11:33 52.20287 4.91348 5911 ft 242 kts 40°
2026-04-18 11:33 52.21594 4.93106 6293 ft 244 kts 38°
2026-04-18 11:34 52.22930 4.94844 6665 ft 246 kts 38°
2026-04-18 11:34 52.24264 4.96594 7040 ft 247 kts 39°
2026-04-18 11:34 52.25603 4.98371 7409 ft 248 kts 39°
2026-04-18 11:34 52.26941 5.00169 7779 ft 250 kts 39°
2026-04-18 11:35 52.28283 5.01982 8164 ft 251 kts 39°
2026-04-18 11:35 52.29631 5.03812 8539 ft 253 kts 39°
2026-04-18 11:35 52.30987 5.05657 8920 ft 255 kts 39°
2026-04-18 11:35 52.32430 5.07563 9299 ft 278 kts 36°
2026-04-18 11:36 52.34114 5.09250 9667 ft 288 kts 24°
2026-04-18 11:36 52.36010 5.10351 10043 ft 291 kts 15°
2026-04-18 11:36 52.37975 5.11202 10415 ft 293 kts 13°
2026-04-18 11:36 52.39961 5.12014 10797 ft 295 kts 13°
2026-04-18 11:37 52.41958 5.12839 11167 ft 297 kts 14°
2026-04-18 11:37 52.43971 5.13688 11543 ft 299 kts 14°
2026-04-18 11:37 52.45985 5.14552 11923 ft 300 kts 14°
2026-04-18 11:37 52.48013 5.15431 12292 ft 302 kts 14°
2026-04-18 11:38 52.50048 5.16318 12668 ft 304 kts 14°
2026-04-18 11:38 52.52102 5.17218 12951 ft 307 kts 14°
2026-04-18 11:38 52.54162 5.18122 13142 ft 306 kts 14°
2026-04-18 11:38 52.56233 5.19034 13415 ft 315 kts 14°
2026-04-18 11:39 52.58375 5.19976 14052 ft 319 kts 14°
2026-04-18 11:39 52.60516 5.20918 14795 ft 322 kts 14°
2026-04-18 11:39 52.62705 5.21884 15172 ft 327 kts 14°
2026-04-18 11:39 52.64904 5.22855 15545 ft 329 kts 14°
2026-04-18 11:40 52.67126 5.23839 15920 ft 331 kts 15°
2026-04-18 11:40 52.69330 5.24815 16292 ft 333 kts 15°
2026-04-18 11:40 52.71545 5.25967 16671 ft 335 kts 21°
2026-04-18 11:40 52.73620 5.27717 17041 ft 337 kts 34°
2026-04-18 11:41 52.75418 5.30204 17428 ft 338 kts 46°
2026-04-18 11:41 52.76997 5.33108 17800 ft 341 kts 48°
2026-04-18 11:41 52.78671 5.35891 18167 ft 343 kts 41°
2026-04-18 11:41 52.80534 5.38370 18534 ft 345 kts 37°
2026-04-18 11:42 52.82491 5.40679 18917 ft 347 kts 34°
2026-04-18 11:42 52.84513 5.42879 19288 ft 349 kts 32°
2026-04-18 11:42 52.86569 5.45006 19663 ft 351 kts 31°
2026-04-18 11:42 52.88671 5.47125 20047 ft 353 kts 31°
2026-04-18 11:43 52.90776 5.49227 20416 ft 355 kts 31°
2026-04-18 11:43 52.92898 5.51344 20787 ft 357 kts 31°
2026-04-18 11:43 52.95027 5.53476 21159 ft 359 kts 31°
2026-04-18 11:43 52.97175 5.55636 21542 ft 361 kts 31°
2026-04-18 11:44 52.99326 5.57808 21914 ft 363 kts 31°
2026-04-18 11:44 53.01493 5.60004 22295 ft 365 kts 31°
2026-04-18 11:44 53.03665 5.62212 22671 ft 367 kts 31°
2026-04-18 11:44 53.05850 5.64438 23050 ft 369 kts 31°
2026-04-18 11:45 53.08038 5.66670 23416 ft 371 kts 31°
2026-04-18 11:45 53.10254 5.68934 23786 ft 374 kts 31°
2026-04-18 11:45 53.12446 5.71177 24162 ft 376 kts 31°
2026-04-18 11:45 53.14713 5.73499 24540 ft 378 kts 31°
2026-04-18 11:46 53.16930 5.75772 24909 ft 380 kts 31°
2026-04-18 11:46 53.19190 5.78091 25293 ft 382 kts 31°
2026-04-18 11:46 53.21468 5.80433 25664 ft 385 kts 31°
2026-04-18 11:46 53.23760 5.82792 26037 ft 387 kts 31°
2026-04-18 11:47 53.26054 5.85155 26402 ft 388 kts 31°
2026-04-18 11:47 53.28354 5.87528 26789 ft 389 kts 31°
2026-04-18 11:47 53.30634 5.89882 27159 ft 390 kts 32°
2026-04-18 11:47 53.32943 5.92268 27534 ft 391 kts 32°
2026-04-18 11:48 53.35251 5.94656 27920 ft 391 kts 32°
2026-04-18 11:48 53.37572 5.97060 28294 ft 391 kts 32°
2026-04-18 11:48 53.39890 5.99464 28664 ft 391 kts 32°
2026-04-18 11:48 53.42197 6.01859 29036 ft 391 kts 32°
2026-04-18 11:49 53.44510 6.04263 29412 ft 390 kts 32°
2026-04-18 11:49 53.46822 6.06668 29788 ft 390 kts 32°
2026-04-18 11:49 53.49116 6.09058 30156 ft 389 kts 32°
2026-04-18 11:49 53.50645 6.10652 30412 ft 389 kts 32°
2026-04-18 11:50 53.52943 6.13051 30778 ft 388 kts 32°
2026-04-18 11:50 53.55248 6.15460 30979 ft 393 kts 32°
2026-04-18 11:50 53.59979 6.20424 30996 ft 408 kts 32°
2026-04-18 11:51 53.64824 6.25535 30997 ft 412 kts 32°
2026-04-18 11:51 53.69700 6.30692 30998 ft 412 kts 32°
2026-04-18 11:52 53.74523 6.35802 31002 ft 412 kts 32°
2026-04-18 11:52 53.79383 6.40960 31006 ft 412 kts 32°
2026-04-18 11:53 53.84251 6.46138 30997 ft 412 kts 32°
2026-04-18 11:53 53.89094 6.51258 31003 ft 412 kts 31°
2026-04-18 11:54 53.94042 6.56188 30997 ft 412 kts 30°
2026-04-18 11:54 53.99022 6.61023 31004 ft 412 kts 30°
2026-04-18 11:55 54.04006 6.65863 30997 ft 412 kts 30°
2026-04-18 11:55 54.08983 6.70726 31004 ft 412 kts 30°
2026-04-18 11:56 54.13955 6.75609 30997 ft 412 kts 30°
2026-04-18 11:56 54.18925 6.80509 30997 ft 412 kts 30°
2026-04-18 11:57 54.23861 6.85391 31002 ft 412 kts 30°
2026-04-18 11:57 54.28825 6.90313 30997 ft 412 kts 30°
2026-04-18 11:58 54.33789 6.95247 31000 ft 412 kts 30°
2026-04-18 11:58 54.38750 7.00194 30997 ft 412 kts 30°
2026-04-18 11:59 54.43710 7.05153 31007 ft 412 kts 30°
2026-04-18 11:59 54.48676 7.10133 30999 ft 412 kts 30°
2026-04-18 12:00 54.53629 7.15114 30998 ft 412 kts 30°
2026-04-18 12:00 54.58580 7.20106 30998 ft 412 kts 30°
2026-04-18 12:01 54.66010 7.27625 30998 ft 412 kts 30°
2026-04-18 12:02 54.70952 7.32644 30997 ft 412 kts 30°
2026-04-18 12:02 54.75877 7.37660 31003 ft 412 kts 30°
2026-04-18 12:03 54.80818 7.42706 30997 ft 412 kts 30°
2026-04-18 12:03 54.85761 7.47770 30997 ft 412 kts 30°
2026-04-18 12:04 54.90700 7.52844 31001 ft 412 kts 30°
2026-04-18 12:04 54.95647 7.57941 30997 ft 412 kts 31°
2026-04-18 12:05 55.00554 7.62977 30997 ft 412 kts 30°
2026-04-18 12:05 55.05580 7.67825 31006 ft 412 kts 28°
2026-04-18 12:06 55.10632 7.72564 30997 ft 412 kts 28°
2026-04-18 12:06 55.15694 7.77319 30997 ft 412 kts 28°
2026-04-18 12:07 55.20739 7.82095 30997 ft 412 kts 28°
2026-04-18 12:07 55.25747 7.86865 30997 ft 412 kts 28°
2026-04-18 12:08 55.30795 7.91691 30997 ft 412 kts 28°
2026-04-18 12:08 55.35816 7.96506 31001 ft 412 kts 28°
2026-04-18 12:09 55.40861 8.01359 31001 ft 412 kts 28°
2026-04-18 12:09 55.45895 8.06215 31002 ft 412 kts 28°
2026-04-18 12:10 55.50932 8.11087 30997 ft 412 kts 28°
2026-04-18 12:10 55.55964 8.15968 30997 ft 412 kts 28°
2026-04-18 12:11 55.60987 8.20856 31002 ft 412 kts 28°
2026-04-18 12:11 55.66010 8.25758 31003 ft 412 kts 28°
2026-04-18 12:12 55.71005 8.30647 30997 ft 412 kts 29°
2026-04-18 12:12 55.76027 8.35577 31002 ft 412 kts 29°
2026-04-18 12:13 55.81049 8.40521 30997 ft 412 kts 29°
2026-04-18 12:13 55.86061 8.45471 31002 ft 412 kts 29°
2026-04-18 12:14 55.91078 8.50440 31000 ft 412 kts 29°
2026-04-18 12:14 55.96104 8.55433 31001 ft 412 kts 29°
2026-04-18 12:15 56.01112 8.60423 31002 ft 412 kts 29°
2026-04-18 12:15 56.06084 8.65392 31007 ft 412 kts 29°
2026-04-18 12:16 56.11099 8.70419 30997 ft 412 kts 29°
2026-04-18 12:16 56.16103 8.75450 31000 ft 412 kts 29°
2026-04-18 12:17 56.21104 8.80493 31004 ft 412 kts 29°
2026-04-18 12:17 56.26110 8.85556 31000 ft 412 kts 29°
2026-04-18 12:18 56.31120 8.90639 30999 ft 412 kts 29°
2026-04-18 12:18 56.36107 8.95714 31003 ft 412 kts 29°
2026-04-18 12:19 56.41108 9.00818 30998 ft 412 kts 29°
2026-04-18 12:19 56.46099 9.05929 30997 ft 412 kts 29°
2026-04-18 12:20 56.51059 9.11022 31000 ft 412 kts 29°
2026-04-18 12:20 56.56048 9.16162 30997 ft 412 kts 30°
2026-04-18 12:21 56.61047 9.21327 31003 ft 412 kts 30°
2026-04-18 12:21 56.66034 9.26495 30997 ft 412 kts 30°
2026-04-18 12:22 56.71015 9.31674 30997 ft 412 kts 30°
2026-04-18 12:22 56.75987 9.36859 30997 ft 412 kts 30°
2026-04-18 12:23 56.80938 9.42038 30997 ft 412 kts 30°
2026-04-18 12:23 56.85907 9.47252 31003 ft 412 kts 30°
2026-04-18 12:24 56.90886 9.52492 30997 ft 412 kts 30°
2026-04-18 12:24 56.95859 9.57743 31001 ft 412 kts 30°
2026-04-18 12:25 57.00841 9.63019 30997 ft 412 kts 30°
2026-04-18 12:25 57.05807 9.68295 30997 ft 412 kts 30°
2026-04-18 12:26 57.10774 9.73588 30997 ft 412 kts 30°
2026-04-18 12:26 57.15696 9.78850 31003 ft 412 kts 30°
2026-04-18 12:27 57.20657 9.84170 31001 ft 412 kts 30°
2026-04-18 12:27 57.25613 9.89501 30997 ft 412 kts 30°
2026-04-18 12:28 57.30570 9.94851 31004 ft 412 kts 30°
2026-04-18 12:28 57.35528 10.00218 31002 ft 412 kts 30°
2026-04-18 12:29 57.40482 10.05597 31002 ft 412 kts 30°
2026-04-18 12:29 57.45431 10.10989 30987 ft 412 kts 30°
2026-04-18 12:30 57.50377 10.16395 30998 ft 412 kts 30°
2026-04-18 12:30 57.55286 10.21777 30997 ft 412 kts 30°
2026-04-18 12:31 57.60229 10.27213 31002 ft 412 kts 30°
2026-04-18 12:31 57.65161 10.32654 31001 ft 412 kts 30°
2026-04-18 12:32 57.70096 10.38117 30997 ft 412 kts 31°
2026-04-18 12:32 57.75028 10.43593 30997 ft 412 kts 31°
2026-04-18 12:33 57.79962 10.49089 31000 ft 412 kts 31°
2026-04-18 12:33 57.84892 10.54599 31003 ft 412 kts 31°
2026-04-18 12:34 57.89824 10.60129 30997 ft 412 kts 31°
2026-04-18 12:34 57.94747 10.65666 30997 ft 412 kts 31°
2026-04-18 12:35 57.99677 10.71230 31004 ft 412 kts 31°
2026-04-18 12:35 58.04598 10.76800 30997 ft 412 kts 31°
2026-04-18 12:36 58.08687 10.81444 31004 ft 412 kts 31°
2026-04-18 12:36 58.13607 10.87047 31001 ft 412 kts 31°
2026-04-18 12:37 58.18491 10.92627 31006 ft 412 kts 31°
2026-04-18 12:37 58.23409 10.98264 31002 ft 412 kts 31°
2026-04-18 12:38 58.28323 11.03917 30997 ft 412 kts 31°
2026-04-18 12:38 58.33205 11.09549 31006 ft 412 kts 31°
2026-04-18 12:39 58.38108 11.15225 31003 ft 412 kts 31°
2026-04-18 12:39 58.43008 11.20916 30999 ft 412 kts 31°
2026-04-18 12:40 58.47907 11.26625 30997 ft 412 kts 31°
2026-04-18 12:40 58.52801 11.32346 31004 ft 412 kts 31°
2026-04-18 12:41 58.57696 11.38088 31006 ft 412 kts 31°
2026-04-18 12:41 58.62582 11.43839 30997 ft 412 kts 31°
2026-04-18 12:42 58.67467 11.49607 30997 ft 412 kts 31°
2026-04-18 12:42 58.72361 11.55405 31000 ft 412 kts 31°
2026-04-18 12:43 58.77215 11.61175 30999 ft 412 kts 32°
2026-04-18 12:43 58.82095 11.66995 31001 ft 412 kts 32°
2026-04-18 12:44 58.86974 11.72834 31002 ft 412 kts 32°
2026-04-18 12:44 58.91847 11.78684 30997 ft 412 kts 32°
2026-04-18 12:45 58.96721 11.84557 30997 ft 412 kts 32°
2026-04-18 12:45 59.01592 11.90445 30997 ft 412 kts 32°
2026-04-18 12:46 59.06529 11.96119 30997 ft 412 kts 29°
2026-04-18 12:46 59.11579 12.01388 30997 ft 412 kts 27°
2026-04-18 12:47 59.16662 12.06573 30998 ft 412 kts 27°
2026-04-18 12:47 59.21735 12.11783 30997 ft 412 kts 28°
2026-04-18 12:48 59.26768 12.17003 31002 ft 412 kts 28°
2026-04-18 12:48 59.31840 12.22299 31001 ft 412 kts 28°
2026-04-18 12:49 59.36898 12.27605 30997 ft 412 kts 28°
2026-04-18 12:49 59.41955 12.32927 31004 ft 412 kts 28°
2026-04-18 12:50 59.47008 12.38263 31002 ft 412 kts 28°
2026-04-18 12:50 59.52057 12.43611 30997 ft 412 kts 28°
2026-04-18 12:51 59.57106 12.48978 31001 ft 412 kts 28°
2026-04-18 12:51 59.62154 12.54362 30997 ft 412 kts 28°
2026-04-18 12:52 59.67208 12.59772 31004 ft 412 kts 28°
2026-04-18 12:52 59.72218 12.65152 31002 ft 412 kts 28°
2026-04-18 12:53 59.77263 12.70590 31001 ft 412 kts 28°
2026-04-18 12:53 59.81537 12.75211 30996 ft 412 kts 28°
2026-04-18 12:54 59.86573 12.80673 31000 ft 412 kts 28°
2026-04-18 12:54 59.91609 12.86154 31003 ft 412 kts 28°
2026-04-18 12:55 59.96641 12.91651 31001 ft 412 kts 28°
2026-04-18 12:55 60.01682 12.97175 30818 ft 414 kts 28°
2026-04-18 12:55 60.04177 12.99919 30451 ft 414 kts 28°
2026-04-18 12:56 60.06700 13.02700 30074 ft 414 kts 28°
2026-04-18 12:56 60.09219 13.05481 29704 ft 414 kts 28°
2026-04-18 12:56 60.11742 13.08274 29331 ft 413 kts 29°
2026-04-18 12:56 60.14254 13.11059 28951 ft 411 kts 29°
2026-04-18 12:57 60.16749 13.13830 28578 ft 409 kts 29°
2026-04-18 12:57 60.19233 13.16591 28203 ft 407 kts 29°
2026-04-18 12:57 60.21700 13.19339 27827 ft 404 kts 29°
2026-04-18 12:57 60.24153 13.22074 27448 ft 402 kts 29°
2026-04-18 12:58 60.26592 13.24798 27078 ft 399 kts 29°
2026-04-18 12:58 60.29014 13.27507 26703 ft 397 kts 29°
2026-04-18 12:58 60.31422 13.30204 26333 ft 395 kts 29°
2026-04-18 12:58 60.33825 13.32900 25951 ft 392 kts 29°
2026-04-18 12:59 60.36203 13.35572 25580 ft 390 kts 29°
2026-04-18 12:59 60.38539 13.38203 25210 ft 388 kts 29°
2026-04-18 12:59 60.40883 13.40846 24833 ft 385 kts 29°
2026-04-18 12:59 60.43227 13.43465 24461 ft 383 kts 28°
2026-04-18 13:00 60.45561 13.46051 24191 ft 380 kts 28°
2026-04-18 13:00 60.47872 13.48626 23934 ft 379 kts 28°
2026-04-18 13:00 60.50180 13.51218 23690 ft 377 kts 29°
2026-04-18 13:00 60.52470 13.53804 23447 ft 376 kts 29°
2026-04-18 13:01 60.54751 13.56392 23194 ft 374 kts 29°
2026-04-18 13:01 60.57021 13.58976 22939 ft 373 kts 29°
2026-04-18 13:01 60.59249 13.61520 22698 ft 371 kts 29°
2026-04-18 13:01 60.61526 13.64124 22442 ft 370 kts 29°
2026-04-18 13:02 60.63738 13.66659 22193 ft 369 kts 29°
2026-04-18 13:02 60.65971 13.69223 21941 ft 367 kts 29°
2026-04-18 13:02 60.68191 13.71776 21688 ft 366 kts 29°
2026-04-18 13:02 60.70407 13.74328 21431 ft 364 kts 29°
2026-04-18 13:03 60.72598 13.76856 21193 ft 363 kts 29°
2026-04-18 13:03 60.76973 13.81916 20694 ft 360 kts 29°
2026-04-18 13:03 60.79153 13.84443 20434 ft 359 kts 29°
2026-04-18 13:04 60.81328 13.86968 20194 ft 357 kts 29°
2026-04-18 13:04 60.83488 13.89480 19941 ft 356 kts 29°
2026-04-18 13:04 60.85636 13.91982 19690 ft 355 kts 29°
2026-04-18 13:04 60.87783 13.94486 19439 ft 353 kts 29°
2026-04-18 13:05 60.89912 13.96974 19192 ft 352 kts 30°
2026-04-18 13:05 60.92035 13.99459 18938 ft 350 kts 30°
2026-04-18 13:05 60.94147 14.01933 18683 ft 349 kts 30°
2026-04-18 13:05 60.96259 14.04412 18439 ft 348 kts 30°
2026-04-18 13:06 60.98358 14.06880 18201 ft 346 kts 30°
2026-04-18 13:06 61.00452 14.09345 17941 ft 345 kts 30°
2026-04-18 13:06 61.02506 14.11768 17692 ft 344 kts 30°
2026-04-18 13:06 61.04579 14.14216 17447 ft 342 kts 30°
2026-04-18 13:07 61.06644 14.16659 17193 ft 341 kts 30°
2026-04-18 13:07 61.08702 14.19097 16936 ft 340 kts 30°
2026-04-18 13:07 61.10756 14.21533 16692 ft 339 kts 30°
2026-04-18 13:07 61.12797 14.23958 16434 ft 337 kts 30°
2026-04-18 13:08 61.14830 14.26377 16182 ft 336 kts 30°
2026-04-18 13:08 61.16852 14.28787 15941 ft 335 kts 30°
2026-04-18 13:08 61.18862 14.31187 15699 ft 333 kts 30°
2026-04-18 13:08 61.20873 14.33590 15439 ft 332 kts 30°
2026-04-18 13:09 61.22845 14.35951 15188 ft 331 kts 30°
2026-04-18 13:09 61.24840 14.38342 14943 ft 330 kts 30°
2026-04-18 13:09 61.26824 14.40725 14694 ft 329 kts 30°
2026-04-18 13:09 61.28798 14.43098 14444 ft 327 kts 30°
2026-04-18 13:10 61.30764 14.45465 14192 ft 326 kts 30°
2026-04-18 13:10 61.32714 14.47816 13947 ft 325 kts 30°
2026-04-18 13:10 61.34673 14.50183 13692 ft 324 kts 30°
2026-04-18 13:10 61.36612 14.52527 13431 ft 322 kts 30°
2026-04-18 13:11 61.38558 14.54884 13193 ft 321 kts 30°
2026-04-18 13:11 61.40494 14.57232 12948 ft 320 kts 30°
2026-04-18 13:11 61.42415 14.59565 12694 ft 319 kts 30°
2026-04-18 13:11 61.44329 14.61894 12444 ft 318 kts 30°
2026-04-18 13:12 61.46234 14.64214 12189 ft 316 kts 30°
2026-04-18 13:12 61.48130 14.66527 12022 ft 315 kts 30°
2026-04-18 13:12 61.49998 14.68809 12002 ft 315 kts 30°
2026-04-18 13:12 61.51890 14.71123 11999 ft 315 kts 30°
2026-04-18 13:13 61.53780 14.73438 11999 ft 315 kts 30°
2026-04-18 13:13 61.55671 14.75757 12000 ft 315 kts 30°
2026-04-18 13:13 61.57556 14.78074 11999 ft 315 kts 30°
2026-04-18 13:13 61.59455 14.80410 11999 ft 315 kts 30°
2026-04-18 13:14 61.61345 14.82738 12001 ft 315 kts 30°
2026-04-18 13:14 61.63233 14.85068 11999 ft 315 kts 30°
2026-04-18 13:14 61.65125 14.87405 12000 ft 315 kts 30°
2026-04-18 13:14 61.67014 14.89743 11999 ft 315 kts 30°
2026-04-18 13:15 61.68901 14.92081 12000 ft 315 kts 30°
2026-04-18 13:15 61.70791 14.94427 11999 ft 315 kts 30°
2026-04-18 13:15 61.72678 14.96772 12000 ft 315 kts 30°
2026-04-18 13:15 61.74565 14.99120 12001 ft 315 kts 30°
2026-04-18 13:16 61.76452 15.01472 11999 ft 315 kts 30°
2026-04-18 13:16 61.78311 15.03792 12002 ft 315 kts 30°
2026-04-18 13:16 61.80196 15.06146 12000 ft 315 kts 30°
2026-04-18 13:16 61.82081 15.08507 12000 ft 315 kts 30°
2026-04-18 13:17 61.83969 15.10874 12000 ft 315 kts 30°
2026-04-18 13:17 61.85851 15.13236 12000 ft 315 kts 30°
2026-04-18 13:17 61.87735 15.15604 11999 ft 315 kts 30°
2026-04-18 13:17 61.89624 15.17982 12001 ft 315 kts 31°
2026-04-18 13:18 61.91502 15.20350 12000 ft 315 kts 31°
2026-04-18 13:18 61.93385 15.22727 11999 ft 315 kts 31°
2026-04-18 13:18 61.95271 15.25111 12000 ft 315 kts 31°
2026-04-18 13:18 61.97149 15.27489 12003 ft 315 kts 31°
2026-04-18 13:19 61.99033 15.29879 11999 ft 315 kts 31°
2026-04-18 13:19 62.00911 15.32264 12002 ft 315 kts 31°
2026-04-18 13:19 62.02794 15.34659 11999 ft 315 kts 31°
2026-04-18 13:19 62.04654 15.37027 11998 ft 315 kts 31°
2026-04-18 13:20 62.06031 15.38783 11999 ft 315 kts 31°